Lid_Strength_Index
2 1 1 1 1 0 0 0 0 -0 -0 0 0 0 1 -0 -0 -1 -2 -2 -2 -2 -2 -1 -1 -1 -1 -0 -1 -0 -1 0 -0 1 1 0 -1 -1 -1 -1 -1 -1 -1
3 2 2 1 1 1 0 0 0 -0 -0 -0 -0 -0 -0 -0 -1 -1 -2 -2 -2 -2 -1 -1 -1 -1 -0 -1 -1 -0 0 0 -0 2 2 3 1 0 -0 -1 -0 -1 -1
3 2 2 2 1 1 1 0 0 -0 -0 -1 -0 -0 -0 -0 0 -0 -0 -1 -1 -2 -2 -1 -1 -1 -1 0 -0 -1 -0 1 -0 -0 2 4 4 2 -0 -0 -0 -1 -0
3 2 2 2 2 1 0 0 0 0 -0 -1 -0 0 1 1 1 0 -0 -1 -1 -1 -1 -1 -1 -1 -1 -0 -1 -1 -0 -0 1 0 -1 -0 1 4 4 1 0 -1 -1
3 3 2 2 1 1 1 0 0 0 -0 -0 -0 0 1 0 0 0 -1 -1 -1 -1 -1 -1 -1 -1 -1 -1 -1 -1 -1 -0 1 1 1 0 1 0 3 4 2 0 -0
3 2 2 1 1 1 1 1 1 0 -0 -0 0 0 0 1 1 0 1 0 -0 -0 -1 -1 -1 -1 -1 -1 -1 -1 -1 -0 -0 0 0 1 2 2 2 3 2 2 1
3 3 2 2 2 1 1 1 1 1 0 0 0 0 0 0 0 0 1 1 1 0 -0 -0 -0 -1 -1 -1 -1 -1 -1 -1 0 -0 0 0 0 0 1 2 2 2 1
3 3 2 2 2 1 1 1 1 1 1 0 1 0 0 1 0 0 0 0 0 0 -0 -0 -1 -1 -1 -1 -1 -1 -0 -1 -0 -1 -0 0 0 1 1 2 2 3 3
3 3 2 2 2 1 1 1 1 1 1 1 0 1 0 0 0 -0 -0 0 -0 0 0 -0 -0 -1 -1 -1 -1 -0 -0 -1 -1 -1 -1 -0 1 0 0 0 1 2 4
3 3 2 2 2 1 1 1 1 1 1 1 1 1 0 0 -0 -0 0 -0 -0 -0 1 -0 -0 -1 -1 -1 -1 -1 -1 -1 -0 -0 -1 -1 0 -0 -0 -0 0 1 2
3 2 2 2 2 1 1 1 1 1 1 1 1 0 0 0 0 0 0 -0 -0 -0 -0 -0 -1 -0 -1 -1 -1 -1 -1 -1 -0 -1 -0 -0 -1 1 -0 -0 0 1 1
2 2 2 2 2 2 1 1 1 1 1 0 0 1 0 0 0 0 0 -0 0 0 -1 -1 -0 -1 -1 -1 -1 -0 -1 -0 -0 -0 -0 -0 0 -0 -0 0 0 1 0
3 2 2 2 2 2 1 1 1 1 1 0 1 1 0 0 1 0 0 -0 0 -0 -0 -0 -0 -0 -1 -1 -1 -1 -0 -0 -0 -0 -0 -0 -0 0 0 0 1 1 1
3 3 2 2 2 1 1 1 1 1 1 1 1 1 1 1 1 0 0 0 -0 -0 -0 -0 -0 -1 -1 -1 -0 -1 -1 -0 -0 -1 -1 -0 -0 -0 0 0 1 1 1
4 3 3 3 2 2 2 1 1 1 1 1 1 1 1 0 1 1 0 0 -0 -0 -0 -0 -0 -1 -0 -0 -1 -1 -0 -0 -0 -0 -1 -1 -1 -0 -0 0 1 1 2
3 3 3 3 3 2 2 2 1 1 1 1 1 1 1 1 1 1 1 0 0 -0 -0 -0 -0 -0 -0 2 1 -0 -0 -0 -0 0 -0 -1 -1 -0 0 0 0 0 1
3 3 3 3 2 2 2 2 1 1 1 1 1 1 1 1 1 1 1 1 1 0 0 -0 -0 -0 -0 3 2 1 -0 -0 -0 -0 -0 -0 -0 -0 -0 0 0 0 0
2 2 2 2 2 2 1 1 1 1 1 1 1 2 1 2 1 1 1 1 0 0 0 0 -0 -0 -0 3 2 1 -0 -0 -0 -1 -0 -0 -0 -0 2 1 0 0 -0
2 2 2 2 2 2 1 2 2 2 2 2 2 1 1 1 1 1 1 0 0 0 0 -0 -0 0 -0 4 3 2 -0 -0 -0 -1 -0 -1 -0 3 4 1 1 1 1
2 2 2 2 2 2 1 2 2 2 2 2 1 1 1 1 2 1 1 0 0 0 0 0 -0 1 -0 5 5 2 0 -0 0 -1 -0 3 2 5 5 2 1 1 2
2 2 2 2 2 1 1 2 2 2 1 1 1 1 1 1 1 1 1 1 0 0 0 0 -0 -0 0 1 6 6 1 1 2 2 2 1 5 6 6 6 2 2 3
3 2 3 3 2 1 1 2 2 1 1 1 1 1 1 1 1 1 1 1 0 1 1 1 1 0 -0 4 7 7 6 5 2 2 2 1 6 7 7 5 6 5 3
3 2 2 2 2 1 1 2 2 1 1 1 1 1 1 1 1 1 1 1 1 1 1 2 1 1 0 2 7 7 6 5 3 2 4 5 7 7 5 5 5 3 2
3 2 2 2 2 2 1 1 1 1 1 2 2 1 1 1 1 1 1 1 1 2 2 1 2 1 1 1 1 1 1 4 3 2 2 5 6 6 5 3 2 2 3
2 2 2 2 2 1 1 1 1 1 2 1 1 2 1 1 1 2 3 1 1 2 1 1 1 1 1 2 6 5 3 3 5 5 3 5 5 5 5 4 3 3 3
3 2 2 2 1 1 1 1 0 0 1 2 2 2 2 2 1 2 5 11 10 10 10 10 5 3 8 10 10 10 9 9 8 4 6 6 6 6 6 5 4 3 4